| time (UTC) | temp C | wind direction | speed KPH | gust KPH | rain 1hr cm | rain 24hr cm | rain mn cm | humidity % | barometer mb |
| 20260905214004 | 16 | 294 | 6.4 | 12.9 | 0.00 | 0.05 | 0.05 | 55 | 1020.6 |
| 20260905213006 | 16 | 296 | 3.2 | 17.7 | 0.00 | 0.05 | 0.05 | 56 | 1019.9 |
| 20260905212004 | 16 | 235 | 6.4 | 16.1 | 0.00 | 0.05 | 0.05 | 57 | 1019.8 |
| 20260905211004 | 16 | 306 | 3.2 | 9.7 | 0.00 | 0.05 | 0.05 | 56 | 1019.8 |
| 20260905210004 | 16 | 260 | 3.2 | 9.7 | 0.00 | 0.05 | 0.05 | 56 | 1019.9 |
| 20260905205004 | 16 | 235 | 1.6 | 11.3 | 0.00 | 0.05 | 0.05 | 56 | 1019.6 |
| 20260905204004 | 16 | 209 | 1.6 | 9.7 | 0.00 | 0.05 | 0.05 | 55 | 1019.7 |
| 20260905202004 | 16 | 303 | 4.8 | 8.0 | 0.00 | 0.05 | 0.05 | 55 | 1019.9 |
| 20260905200004 | 15 | 259 | 3.2 | 8.0 | 0.00 | 0.05 | 0.05 | 58 | 1019.6 |
| 20260905195004 | 15 | 251 | 4.8 | 6.4 | 0.00 | 0.05 | 0.05 | 58 | 1019.8 |
| 20260905194004 | 15 | 244 | 3.2 | 6.4 | 0.00 | 0.05 | 0.05 | 57 | 1019.6 |
| 20260905192004 | 16 | 253 | 0.0 | 6.4 | 0.00 | 0.05 | 0.05 | 53 | 1019.6 |
| 20260905190005 | 16 | 338 | 6.4 | 11.3 | 0.00 | 0.05 | 0.05 | 55 | 1019.6 |
| 20260905185003 | 16 | 250 | 1.6 | 4.8 | 0.00 | 0.05 | 0.05 | 52 | 1019.3 |
| 20260905184004 | 16 | 235 | 1.6 | 6.4 | 0.00 | 0.05 | 0.05 | 51 | 1019.2 |
| 20260905182004 | 17 | 242 | 1.6 | 6.4 | 0.00 | 0.05 | 0.05 | 48 | 1019.0 |
| 20260905181004 | 17 | 238 | 4.8 | 9.7 | 0.00 | 0.05 | 0.05 | 47 | 1019.2 |
| 20260905180005 | 17 | 231 | 3.2 | 6.4 | 0.00 | 0.05 | 0.05 | 46 | 1019.2 |
| 20260905175004 | 18 | 222 | 3.2 | 12.9 | 0.00 | 0.05 | 0.05 | 45 | 1019.1 |
| 20260905174004 | 18 | 234 | 3.2 | 8.0 | 0.00 | 0.05 | 0.05 | 44 | 1019.2 |
| 20260905173005 | 19 | 234 | 3.2 | 11.3 | 0.00 | 0.05 | 0.05 | 42 | 1019.0 |
| 20260905172004 | 19 | 240 | 3.2 | 8.0 | 0.00 | 0.05 | 0.05 | 41 | 1019.0 |
| 20260905171003 | 20 | 260 | 3.2 | 11.3 | 0.00 | 0.05 | 0.05 | 39 | 1019.1 |
| 20260905170004 | 20 | 266 | 1.6 | 12.9 | 0.00 | 0.05 | 0.05 | 37 | 1018.8 |
| 20260905165004 | 20 | 313 | 3.2 | 12.9 | 0.00 | 0.05 | 0.05 | 35 | 1018.8 |
| 20260905164004 | 21 | 334 | 4.8 | 14.5 | 0.00 | 0.05 | 0.05 | 33 | 1019.0 |
| 20260905163004 | 21 | 266 | 4.8 | 19.3 | 0.00 | 0.05 | 0.05 | 32 | 1018.9 |
| 20260905160004 | 22 | 310 | 8.0 | 24.1 | 0.00 | 0.05 | 0.05 | 28 | 1018.5 |
| 20260905155004 | 24 | 266 | 6.4 | 24.1 | 0.00 | 0.05 | 0.05 | 24 | 1018.6 |
| 20260905154004 | 25 | 322 | 6.4 | 25.7 | 0.00 | 0.05 | 0.05 | 23 | 1018.2 |
| 20260905153004 | 23 | 268 | 12.9 | 24.1 | 0.00 | 0.05 | 0.05 | 27 | 1018.5 |
| 20260905152004 | 21 | 333 | 11.3 | 27.4 | 0.00 | 0.05 | 0.05 | 30 | 1018.4 |
| 20260905151004 | 22 | 305 | 14.5 | 27.4 | 0.00 | 0.05 | 0.05 | 28 | 1018.4 |
| 20260905144004 | 25 | 313 | 3.2 | 27.4 | 0.00 | 0.05 | 0.05 | 28 | 1018.2 |
| 20260905143004 | 24 | 312 | 14.5 | 37.0 | 0.00 | 0.05 | 0.05 | 27 | 1018.2 |
| 20260905142004 | 25 | 222 | 8.0 | 35.4 | 0.00 | 0.05 | 0.05 | 25 | 1018.1 |
| 20260905141004 | 23 | 340 | 14.5 | 32.2 | 0.00 | 0.05 | 0.05 | 29 | 1017.8 |
| 20260905140005 | 23 | 300 | 24.1 | 35.4 | 0.00 | 0.05 | 0.05 | 32 | 1018.0 |
| 20260905135004 | 22 | 328 | 12.9 | 29.0 | 0.00 | 0.05 | 0.05 | 32 | 1018.0 |
| 20260905134003 | 22 | 337 | 17.7 | 29.0 | 0.00 | 0.05 | 0.05 | 32 | 1018.0 |
| 20260905133005 | 23 | 278 | 11.3 | 37.0 | 0.00 | 0.05 | 0.05 | 31 | 1018.0 |
| 20260905132004 | 23 | 269 | 12.9 | 30.6 | 0.00 | 0.05 | 0.05 | 32 | 1017.6 |
| 20260905131004 | 23 | 313 | 6.4 | 33.8 | 0.00 | 0.05 | 0.05 | 32 | 1017.8 |
| 20260905130005 | 22 | 314 | 11.3 | 33.8 | 0.00 | 0.05 | 0.05 | 31 | 1017.7 |
| 20260905125004 | 24 | 283 | 22.5 | 38.6 | 0.00 | 0.05 | 0.05 | 32 | 1017.9 |
| 20260905124004 | 22 | 318 | 20.9 | 37.0 | 0.00 | 0.05 | 0.05 | 32 | 1017.9 |
| 20260905123005 | 22 | 334 | 14.5 | 30.6 | 0.00 | 0.05 | 0.05 | 33 | 1018.1 |
| 20260905122004 | 23 | 291 | 12.9 | 25.7 | 0.00 | 0.05 | 0.05 | 31 | 1018.1 |
| 20260905121004 | 24 | 311 | 3.2 | 30.6 | 0.00 | 0.05 | 0.05 | 32 | 1018.1 |
| 20260905120005 | 22 | 295 | 11.3 | 24.1 | 0.00 | 0.05 | 0.05 | 38 | 1018.3 |
| 20260905115004 | 22 | 270 | 11.3 | 32.2 | 0.00 | 0.05 | 0.05 | 38 | 1018.3 |
| 20260905114004 | 23 | 184 | 12.9 | 29.0 | 0.00 | 0.05 | 0.05 | 35 | 1018.2 |
| 20260905113004 | 23 | 254 | 6.4 | 35.4 | 0.00 | 0.05 | 0.05 | 36 | 1018.4 |
| 20260905112004 | 23 | 253 | 4.8 | 25.7 | 0.00 | 0.05 | 0.05 | 38 | 1018.4 |
| 20260905104004 | 21 | 296 | 17.7 | 33.8 | 0.00 | 0.05 | 0.05 | 43 | 1018.4 |
| 20260905103004 | 21 | 232 | 6.4 | 24.1 | 0.00 | 0.05 | 0.05 | 49 | 1018.1 |
| 20260905102004 | 21 | 250 | 3.2 | 29.0 | 0.00 | 0.05 | 0.05 | 49 | 1018.1 |
| 20260905101004 | 21 | 268 | 8.0 | 27.4 | 0.00 | 0.05 | 0.05 | 49 | 1018.0 |
| 20260905095004 | 20 | 270 | 9.7 | 33.8 | 0.00 | 0.05 | 0.05 | 52 | 1017.9 |
| 20260905094004 | 21 | 295 | 9.7 | 25.7 | 0.00 | 0.05 | 0.05 | 50 | 1018.1 |
| 20260905093004 | 21 | 303 | 19.3 | 33.8 | 0.00 | 0.05 | 0.05 | 52 | 1017.8 |
| 20260905091004 | 20 | 293 | 3.2 | 32.2 | 0.00 | 0.05 | 0.05 | 55 | 1017.8 |
| 20260905090004 | 20 | 251 | 16.1 | 35.4 | 0.00 | 0.05 | 0.05 | 56 | 1018.0 |
| 20260905085003 | 20 | 199 | 8.0 | 27.4 | 0.00 | 0.05 | 0.05 | 60 | 1018.1 |
| 20260905084005 | 19 | 238 | 6.4 | 29.0 | 0.00 | 0.05 | 0.05 | 63 | 1017.9 |
| 20260905083004 | 18 | 261 | 14.5 | 35.4 | 0.00 | 0.05 | 0.05 | 65 | 1018.0 |